Kodiak, AK

3:57 PM AKST on December 15, 2017 (GMT -0900)
Kodiak

Weather History for PADQ - November, 2012

Change the Weather History Date:

Monday, November 19, 2012

  Actual Average Record
Temperature  
Mean Temperature 29 °F 33 °F  
Max Temperature 30 °F 38 °F 54 °F (1935)
Min Temperature 27 °F 28 °F 6 °F (1922)
Degree Days  
Heating Degree Days 36 32  
Month to date heating degree days 560 576  
Since 1 July heating degree days 2574 2438  
Cooling Degree Days 0 0  
Month to date cooling degree days 0 0  
Year to date cooling degree days 0 1  
Moisture  
Dew Point 23 °F    
Average Humidity 0    
Maximum Humidity 0    
Minimum Humidity 0    
Precipitation  
Precipitation 0.14 in 0.22 in 1.73 in (1947)
Month to date precipitation 3.46 4.21  
Year to date precipitation 51.22 66.61  
Snow  
Snow 1.50 in 0.30 in 8.40 in (1979)
Month to date snowfall 3.8 3.0  
Since 1 July snowfall 4.2 4.1  
Since 1 September snowfall 4.2 4.1  
Snow Depth 3.00 in    
Sea Level Pressure  
Sea Level Pressure 29.24 in    
Wind  
Wind Speed 22 mph (WNW)    
Max Wind Speed 30 mph    
Max Gust Speed 43 mph    
Visibility 6 miles    
Events Fog , Snow    
T = Trace of Precipitation, MM = Missing Value Source: NWS Daily Summary

Daily Weather History Graph

Daily Weather History Graph

Search for Another Location

Airport or City:

Trip Planner

Search our weather history database for the weather conditions in past years. The results will help you decide how hot, cold, wet, or windy it might be!

Date:

Astronomy

Nov. 19, 2012 Rise Set
Actual Time 9:05 AM AKST 4:44 PM AKST
Civil Twilight 8:19 AM AKST 5:30 PM AKST
Nautical Twilight 7:30 AM AKST 6:19 PM AKST
Astronomical Twilight 6:44 AM AKST 7:06 PM AKST
Moon 1:40 PM AKST (11/19) No Moon Set
Length of Visible Light 9h 11m
Length of Day
7h 39m
Waxing Crescent, 42% of the Moon is Illuminated
Nov 19
Waxing Crescent
Nov 20
First Quarter
Nov 28
Full
Dec 6
Last Quarter
Dec 12
New

Hourly Weather History & Observations

Time (AKST) Temp. Windchill Dew Point Humidity Pressure Visibility Wind Dir Wind Speed Gust Speed Precip Events Conditions
12:25 AM 28.4 °F 14.7 °F 28.4 °F 100% 29.12 in 0.5 mi WNW 21.9 mph 28.8 mph 0.03 in Fog , Snow Snow
12:53 AM 28.9 °F 15.1 °F 28.0 °F 96% 29.12 in 0.8 mi WNW 23.0 mph 33.4 mph 0.04 in Snow Light Snow
1:53 AM 28.9 °F 16.9 °F 28.0 °F 96% 29.14 in 0.8 mi WNW 17.3 mph 28.8 mph 0.06 in Snow Light Snow
2:10 AM 28.4 °F 15.1 °F 26.6 °F 93% 29.13 in 1.0 mi WNW 20.7 mph 32.2 mph 0.01 in Snow Light Snow
2:15 AM 30.2 °F 18.5 °F 26.6 °F 86% 29.13 in 1.0 mi WNW 17.3 mph 32.2 mph 0.01 in Snow Light Snow
2:24 AM 30.2 °F 17.4 °F 26.6 °F 86% 29.13 in 1.8 mi WNW 20.7 mph 31.1 mph 0.01 in Snow Light Snow
2:53 AM 28.9 °F 16.5 °F 27.0 °F 92% 29.14 in 1.0 mi WNW 18.4 mph 35.7 mph 0.02 in Snow Light Snow
3:00 AM 28.4 °F 15.4 °F 26.6 °F 93% 29.14 in 1.0 mi WNW 19.6 mph 29.9 mph 0.00 in Snow Light Snow
3:07 AM 28.4 °F 14.4 °F 26.6 °F 93% 29.14 in 1.5 mi WNW 23.0 mph 32.2 mph 0.00 in Snow Light Snow
3:25 AM 28.4 °F 13.3 °F 26.6 °F 93% 29.15 in 0.8 mi WNW 27.6 mph 35.7 mph 0.00 in Snow Light Snow
3:41 AM 28.4 °F 13.8 °F 26.6 °F 93% 29.15 in 1.2 mi WNW 25.3 mph 36.8 mph 0.00 in Snow Light Snow
3:49 AM 28.4 °F 13.3 °F 26.6 °F 93% 29.15 in 2.0 mi WNW 27.6 mph 35.7 mph 0.00 in Snow Light Snow
3:50 AM 28.9 °F 14.3 °F 26.1 °F 89% 29.16 in 2.0 mi WNW 26.5 mph 35.7 mph 0.00 in Snow Light Snow
4:21 AM 28.4 °F 13.8 °F 24.8 °F 86% 29.17 in 2.5 mi WNW 25.3 mph 38.0 mph 0.00 in Snow Light Snow
4:29 AM 28.4 °F 14.1 °F 24.8 °F 86% 29.17 in 3.0 mi WNW 24.2 mph 38.0 mph 0.00 in Snow Light Snow
4:53 AM 28.9 °F 15.1 °F 25.0 °F 85% 29.18 in 4.0 mi WNW 23.0 mph 31.1 mph 0.00 in Snow Light Snow
5:11 AM 28.4 °F 13.8 °F 26.6 °F 93% 29.19 in 2.5 mi WNW 25.3 mph 33.4 mph 0.00 in Snow Light Snow
5:49 AM 28.4 °F 14.4 °F 24.8 °F 86% 29.20 in 4.0 mi WNW 23.0 mph 36.8 mph 0.00 in Snow Light Snow
5:53 AM 28.9 °F 15.1 °F 24.1 °F 82% 29.21 in 5.0 mi WNW 23.0 mph 33.4 mph 0.00 in   Overcast
6:03 AM 28.4 °F 15.1 °F 24.8 °F 86% 29.21 in 4.0 mi WNW 20.7 mph 36.8 mph N/A Snow Blowing Snow
6:31 AM 28.4 °F 15.1 °F 23.0 °F 80% 29.22 in 5.0 mi NW 20.7 mph 35.7 mph N/A Snow Blowing Snow
6:53 AM 28.9 °F 15.4 °F 23.0 °F 78% 29.23 in 9.0 mi WNW 21.9 mph 29.9 mph N/A   Scattered Clouds
7:53 AM 28.0 °F 14.9 °F 23.0 °F 81% 29.25 in 8.0 mi WNW 19.6 mph 35.7 mph N/A   Scattered Clouds
8:12 AM 28.4 °F 15.4 °F 21.2 °F 74% 29.25 in 9.0 mi WNW 19.6 mph 29.9 mph N/A   Mostly Cloudy
8:53 AM 28.0 °F 14.9 °F 21.9 °F 78% 29.26 in 10.0 mi WNW 19.6 mph 28.8 mph N/A   Mostly Cloudy
9:53 AM 28.0 °F 13.9 °F 21.9 °F 78% 29.28 in 7.0 mi WNW 23.0 mph 40.3 mph N/A   Mostly Cloudy
10:53 AM 28.0 °F 12.8 °F 21.9 °F 78% 29.29 in 7.0 mi WNW 27.6 mph 32.2 mph N/A   Mostly Cloudy
11:53 AM 28.0 °F 13.6 °F 21.9 °F 78% 29.30 in 7.0 mi WNW 24.2 mph 35.7 mph N/A   Mostly Cloudy
12:53 PM 28.9 °F 13.7 °F 21.0 °F 72% 29.30 in 7.0 mi WNW 28.8 mph 41.4 mph N/A   Mostly Cloudy
1:53 PM 28.0 °F 13.3 °F 21.0 °F 75% 29.29 in 7.0 mi NW 25.3 mph 43.7 mph N/A   Overcast
2:53 PM 28.9 °F 14.8 °F 21.0 °F 72% 29.31 in 7.0 mi WNW 24.2 mph 39.1 mph N/A   Overcast
3:53 PM 28.9 °F 16.1 °F 21.0 °F 72% 29.33 in 10.0 mi NW 19.6 mph 35.7 mph N/A   Mostly Cloudy
4:53 PM 28.0 °F 14.3 °F 19.9 °F 72% 29.35 in 10.0 mi West 21.9 mph 42.6 mph 0.00 in   Overcast
5:53 PM 27.0 °F 15.2 °F 19.0 °F 72% 29.36 in 10.0 mi WNW 15.0 mph 31.1 mph N/A   Overcast
6:53 PM 27.0 °F 12.5 °F 16.0 °F 63% 29.37 in 10.0 mi WNW 23.0 mph 31.1 mph N/A   Overcast
7:53 PM 28.0 °F 12.8 °F 16.0 °F 61% 29.38 in 9.0 mi WNW 27.6 mph 39.1 mph N/A   Scattered Clouds
8:53 PM 28.0 °F 15.3 °F 15.1 °F 58% 29.40 in 10.0 mi WNW 18.4 mph 31.1 mph N/A   Partly Cloudy
9:53 PM 28.9 °F 15.4 °F 18.0 °F 64% 29.40 in 10.0 mi WNW 21.9 mph 31.1 mph N/A   Partly Cloudy
10:53 PM 28.0 °F 14.9 °F 19.0 °F 69% 29.41 in 10.0 mi NW 19.6 mph 26.5 mph N/A   Partly Cloudy
11:53 PM 28.9 °F 17.3 °F 18.0 °F 64% 29.42 in 10.0 mi NW 16.1 mph 26.5 mph N/A   Clear